[[{"header":{"parameterUnit":"m.s-1","parameterCategory":1,"la1":30.2991,"la2":30.254,"lo1":-89.0895,"lo2":-89.0444,"dy":0.0017,"dx":0.0017,"nx":28,"ny":28,"refTime":"2026-01-06T03:00:00:Z","depth":0,"parameterNumber":2,"parameterNumberName":"U-component_of_WINDS"},"data":[0,0,0,0,0,0,0,0,0,0,0,0,0,0,0,0,0,0,0,0,0,0,0,0,0,0,0,0,0,0,0,0,0,0,0,0,0,0,0,0,0,0,0,0,0,0,0,0,0,0,0,0,0,0,0,0,0,0,0.159,0.1591,0,0.17,0.1701,0.1702,0.1678,0.1676,0.1674,0.1672,0.1788,0.1793,0.1798,0,0,0,0,0,0,0,0,0,0,0,0,0,0.1365,0.1369,0.159,0.1592,0.1593,0.17,0.1701,0.1703,0.1679,0.1676,0.1674,0.1671,0.1786,0.1792,0.1798,0,0,0,0,0,0,0,0,0,0,0,0,0,0.1468,0.1371,0.159,0.1594,0.1595,0.1699,0.1701,0.1703,0.1679,0.1676,0.1673,0.167,0.1784,0.1792,0.1799,0.1907,0,0,0.1822,0.1825,0,0,0,0,0,0,0,0,0.1462,0.1476,0.1592,0.1594,0.1596,0.1672,0.1664,0.1772,0.168,0.1648,0.1672,0.1669,0.1752,0.1762,0.179,0.1912,0.1917,0.1823,0.1827,0.183,0.1832,0,0,0,0,0,0,0,0.1455,0.1471,0.1634,0.1594,0.1596,0.1592,0.1603,0.1684,0.1716,0.165,0.1649,0.1662,0.1753,0.1782,0.1792,0.1919,0.1822,0.1829,0.1834,0.1837,0.214,0.2144,0,0,0,0,0,0,0.1446,0.1465,0.163,0.1637,0.152,0.1598,0.1611,0.1651,0.1715,0.1722,0.1664,0.166,0.1771,0.1783,0.1796,0.193,0.183,0.1837,0.1842,0.2137,0.2141,0.2145,0,0,0,0,0,0,0.1441,0.146,0.1626,0.1551,0.1572,0.1605,0.1651,0.1655,0.1684,0.1726,0.1732,0.1689,0.1769,0.1785,0.188,0.1934,0.1841,0.1847,0.2133,0.2138,0.2143,0.2197,0,0,0,0,0,0,0.1434,0.1459,0.1499,0.1552,0.1576,0.1707,0.1654,0.1659,0.1697,0.1693,0.175,0.1757,0.1768,0.1869,0.1888,0.1942,0.1853,0.2128,0.2135,0.2141,0.2191,0.2204,0.2215,0,0,0,0,0,0.1426,0.151,0.1501,0.1521,0.1626,0.171,0.1724,0.1734,0.1701,0.1743,0.177,0.1755,0.1924,0.1879,0.19,0.1957,0.2125,0.2133,0.2141,0.2185,0.2201,0.2214,0,0,0,0,0,0,0.1463,0.1516,0.1508,0.161,0.1656,0.1706,0.1759,0.175,0.1806,0.18,0.1811,0.1825,0.1922,0.1949,0.1898,0.2067,0.202,0.2033,0.2047,0.2062,0.2074,0.2067,0.186,0,0,0,0,0,0.1482,0.1544,0.1588,0.1675,0.1698,0.1725,0.1761,0.1765,0.1814,0.1833,0.1867,0.1915,0.1979,0.2022,0.2083,0.2193,0.2208,0.2243,0.2255,0.2265,0.2277,0.2341,0.2359,0.2171,0.2171,0.2171,0,0,0.1524,0.1561,0.16,0.1683,0.1719,0.1785,0.1741,0.1812,0.1862,0.1844,0.1937,0.1963,0.2018,0.2122,0.217,0.2147,0.2331,0.2275,0.2283,0.2289,0.2351,0.2369,0.2385,0.2177,0.2176,0.2175,0,0,0.1635,0.1667,0.1745,0.1782,0.1837,0.1854,0.1873,0.1925,0.1942,0.2034,0.2023,0.2083,0.2193,0.2234,0.2269,0.2397,0.2387,0.2417,0.248,0.2543,0.2558,0.2571,0.2621,0.2638,0.2427,0.2428,0.2428,0,0.168,0.1778,0.1786,0.1859,0.1898,0.1884,0.1964,0.2,0.2072,0.21,0.2073,0.2213,0.2248,0.2364,0.2396,0.2423,0.2447,0.2412,0.2555,0.2568,0.2581,0.2629,0.2647,0.2431,0.2431,0.243,0.243,0,0.1834,0.1902,0.1958,0.2029,0.2073,0.2149,0.2171,0.2215,0.2216,0.2237,0.2333,0.2375,0.2447,0.2473,0.2474,0.2591,0.2576,0.2551,0.2505,0.2602,0.2647,0.2665,0.2436,0.2435,0.2434,0.2433,0,0,0.1971,0.2046,0.2066,0.21,0.216,0.2214,0.2291,0.236,0.24,0.245,0.2517,0.2611,0.2591,0.2631,0.2636,0.2691,0.2795,0.2661,0.2662,0.2688,0.293,0.295,0.2971,0.2787,0.279,0.2793,0.2927,0,0.209,0.2225,0.2235,0.2357,0.2423,0.2411,0.2479,0.2524,0.2546,0.2606,0.263,0.2699,0.2664,0.2689,0.2742,0.2771,0.2844,0.2761,0.2853,0.2856,0.2843,0.2994,0.3015,0.3139,0.2944,0.2947,0.2949,0,0.2247,0.2303,0.2432,0.2486,0.2514,0.2575,0.2641,0.2697,0.275,0.2762,0.2808,0.2806,0.2888,0.2836,0.2951,0.2894,0.2932,0.2952,0.2957,0.2969,0.2911,0.3014,0.3178,0.3199,0.2976,0.2974,0.2972,0,0.2339,0.2446,0.2539,0.2567,0.2631,0.2675,0.2704,0.2753,0.2795,0.2853,0.2881,0.2948,0.2985,0.3038,0.3056,0.3015,0.3171,0.312,0.3187,0.3187,0.3222,0.3221,0.34,0.3241,0.324,0.324,0.324,0,0.2473,0.2553,0.2581,0.2639,0.273,0.2741,0.2831,0.2858,0.2902,0.2966,0.2959,0.302,0.3037,0.3102,0.3116,0.3211,0.3227,0.3241,0.3245,0.3244,0.3243,0.3272,0.3265,0.3245,0.3244,0.3243,0.3242,0,0.2592,0.2613,0.2714,0.2767,0.2782,0.2848,0.2894,0.2951,0.2971,0.3053,0.3072,0.3106,0.3182,0.3204,0.3294,0.3304,0.3417,0.341,0.3399,0.3401,0.3468,0.3463,0.3675,0.3705,0.3523,0.3524,0.3526,0,0.2677,0.2739,0.28,0.2842,0.2873,0.2941,0.2984,0.2998,0.3044,0.311,0.3159,0.3234,0.3295,0.3416,0.345,0.352,0.3518,0.3587,0.3529,0.3527,0.3524,0.3522,0.353,0.36,0.3601,0.3603,0.3604,0,0.2828,0.2837,0.2899,0.2967,0.3019,0.3072,0.3124,0.3159,0.3181,0.3233,0.3311,0.3358,0.3451,0.3527,0.3598,0.363,0.3623,0.3622,0.3642,0.3644,0.3637,0.3646,0.3434,0.3618,0.3617,0.3616,0.3615,0.3614,0.2936,0.2992,0.3044,0.3115,0.3156,0.3205,0.3262,0.329,0.3355,0.3432,0.3436,0.3521,0.3575,0.3671,0.3706,0.3774,0.3754,0.3782,0.379,0.3797,0.3805,0.3623,0.3787,0.3786,0.3786,0.3786,0.3785,0,0.309,0.3124,0.3188,0.3262,0.3319,0.3305,0.3362,0.3411,0.3486,0.3536,0.3596,0.3687,0.3761,0.3801,0.3875,0.3922,0.3921,0.3942,0.394,0.3949,0.3817,0.3794,0.3942,0.3942,0.3942,0.3942,0.3942,0.3941,0.3177,0.3273,0.3288,0.3405,0.3438,0.3521,0.3556,0.3602,0.3643,0.3745,0.3806,0.3831,0.3879,0.3956,0.4025,0.4034,0.4064,0.4088,0.4096,0.3973,0.3957,0.3942,0.3921,0.4093,0.4093,0.4223,0.4224,0.4225]},{"header":{"parameterUnit":"m.s-1","parameterCategory":1,"la1":30.2991,"la2":30.254,"lo1":-89.0895,"lo2":-89.0444,"dy":0.0017,"dx":0.0017,"nx":28,"ny":28,"refTime":"2026-01-06T03:00:00:Z","depth":0,"parameterNumber":3,"parameterNumberName":"V-component_of_WINDS"},"data":[0,0,0,0,0,0,0,0,0,0,0,0,0,0,0,0,0,0,0,0,0,0,0,0,0,0,0,0,0,0,0,0,0,0,0,0,0,0,0,0,0,0,0,0,0,0,0,0,0,0,0,0,0,0,0,0,0,0,3.8856,3.8858,0,3.9084,3.9087,3.909,3.9133,3.9131,3.9129,3.9127,3.9358,3.9366,3.9373,0,0,0,0,0,0,0,0,0,0,0,0,0,3.8452,3.8459,3.8855,3.8858,3.8861,3.9084,3.9087,3.909,3.9133,3.9131,3.9129,3.9126,3.9355,3.9365,3.9374,0,0,0,0,0,0,0,0,0,0,0,0,0,3.8649,3.8462,3.8855,3.8909,3.8917,3.9083,3.9087,3.9091,3.9133,3.9131,3.9128,3.9125,3.9352,3.9364,3.9375,3.9503,0,0,3.9411,3.9417,0,0,0,0,0,0,0,0,3.8637,3.8663,3.8899,3.8906,3.8914,3.9077,3.903,3.9229,3.9134,3.9051,3.9127,3.9124,3.9267,3.9285,3.9334,3.9514,3.9524,3.9412,3.942,3.9425,3.9428,0,0,0,0,0,0,0,3.8624,3.8654,3.8946,3.8902,3.8912,3.8921,3.8946,3.9068,3.9171,3.9058,3.9062,3.9088,3.927,3.9323,3.934,3.9527,3.9412,3.9423,3.943,3.9435,3.9824,3.9827,0,0,0,0,0,0,3.8601,3.8642,3.8939,3.8953,3.8766,3.8931,3.8959,3.9028,3.917,3.9189,3.909,3.909,3.9304,3.9326,3.9348,3.9509,3.9425,3.9436,3.9442,3.9821,3.9825,3.9828,0,0,0,0,0,0,3.8592,3.8627,3.8929,3.8799,3.8838,3.8941,3.9018,3.9034,3.9086,3.9195,3.9213,3.9125,3.9303,3.9332,3.9465,3.9517,3.9441,3.9452,3.9817,3.9822,3.9827,3.9829,0,0,0,0,0,0,3.858,3.8624,3.8674,3.88,3.8845,3.9043,3.9021,3.904,3.9107,3.9108,3.9232,3.925,3.9303,3.9447,3.9476,3.9532,3.9461,3.9813,3.9819,3.9825,3.9825,3.9834,3.9841,0,0,0,0,0,3.8566,3.8665,3.8676,3.8712,3.891,3.9046,3.9072,3.9132,3.9111,3.9162,3.9232,3.9246,3.9506,3.946,3.9494,3.9554,3.981,3.9817,3.9824,3.9821,3.9832,3.9841,0,0,0,0,0,0,3.8541,3.8682,3.8697,3.8839,3.8931,3.9053,3.912,3.9141,3.9239,3.9236,3.9304,3.9332,3.9462,3.952,3.9467,3.9685,3.9656,3.9671,3.9642,3.9653,3.9661,3.9645,3.9471,0,0,0,0,0,3.8553,3.8653,3.877,3.8884,3.8929,3.9016,3.9078,3.9116,3.9213,3.9252,3.9331,3.9424,3.9526,3.9593,3.9693,3.9833,3.9861,3.989,3.9898,3.9904,3.9917,3.9996,4.0011,3.9853,3.9852,3.9852,0,0,3.8577,3.8666,3.8725,3.8881,3.8957,3.9058,3.9049,3.9156,3.9232,3.9268,3.94,3.946,3.9568,3.9706,3.977,3.9759,3.9966,3.9914,3.9918,3.9927,4.0005,4.002,4.0033,3.9858,3.9857,3.9856,0,0,3.8674,3.875,3.8855,3.8931,3.9046,3.9103,3.9128,3.9248,3.9291,3.9424,3.9453,3.9543,3.9718,3.9794,3.9856,3.9981,3.9998,4.0011,4.0054,4.0131,4.0143,4.0155,4.0201,4.0216,4.0022,4.0023,4.0023,0,3.8689,3.8845,3.8906,3.9014,3.9082,3.9119,3.9225,3.9295,3.9436,3.9482,3.9467,3.9689,3.9763,3.992,3.995,3.9998,4.0029,3.9999,4.0136,4.0149,4.016,4.0205,4.0222,4.0024,4.0023,4.0023,4.0023,0,3.8859,3.8966,3.9036,3.9174,3.9249,3.9355,3.9432,3.9501,3.9532,3.959,3.9725,3.9816,3.9936,3.9976,4.0006,4.0137,4.0126,4.0123,4.0096,4.0175,4.0219,4.0236,4.0025,4.0025,4.0024,4.0024,0,0,3.8949,3.9119,3.9144,3.9207,3.9336,3.9419,3.9526,3.9645,3.9703,3.9798,3.989,4.0037,4.0036,4.0105,4.0144,4.0211,4.0306,4.02,4.0203,4.0218,4.0457,4.046,4.0479,4.0317,4.032,4.0323,4.0449,0,3.9063,3.9258,3.9316,3.9479,3.9579,3.9615,3.9709,3.9797,3.9854,3.9946,4.0008,4.0113,4.0101,4.0144,4.0211,4.028,4.0355,4.0271,4.0404,4.0408,4.0378,4.0502,4.0506,4.062,4.0466,4.0469,4.0471,0,3.9223,3.9323,3.9496,3.9613,3.9657,3.9741,3.9855,3.9942,4.0043,4.0079,4.0157,4.0191,4.0303,4.0268,4.0423,4.0365,4.0422,4.0464,4.047,4.0486,4.0446,4.0524,4.0658,4.0676,4.0498,4.0495,4.0493,0,3.9274,3.9451,3.9579,3.9631,3.977,3.9828,3.9888,3.9986,4.0054,4.0152,4.0197,4.0306,4.0367,4.045,4.0512,4.048,4.0663,4.0632,4.0697,4.0695,4.0736,4.0733,4.0883,4.0768,4.0768,4.0767,4.0767,0,3.9397,3.9502,3.9604,3.9682,3.9801,3.9866,3.9981,4.0043,4.0129,4.022,4.0256,4.034,4.0415,4.0509,4.0557,4.0679,4.0706,4.0738,4.0751,4.0737,4.0733,4.0777,4.0772,4.0772,4.0771,4.077,4.0769,0,3.9475,3.9547,3.9689,3.9809,3.9841,3.9924,4.0026,4.0103,4.0161,4.0275,4.0305,4.0396,4.0508,4.0577,4.0718,4.075,4.0886,4.0894,4.0853,4.0859,4.0921,4.0915,4.1106,4.1135,4.0998,4.0999,4.1,0,3.955,3.9633,3.9762,3.9826,3.9887,3.9989,4.0059,4.0125,4.0196,4.0316,4.0379,4.0493,4.0589,4.0766,4.0843,4.0952,4.0964,4.1023,4.0981,4.0965,4.0968,4.0963,4.0972,4.1031,4.1033,4.1033,4.1034,0,3.9677,3.9709,3.9809,3.9921,4.0004,4.0095,4.0186,4.0236,4.0317,4.0395,4.0511,4.0585,4.073,4.0843,4.0958,4.1019,4.1041,4.1047,4.1068,4.1056,4.103,4.1047,4.0875,4.1043,4.1042,4.1041,4.1041,4.104,3.9758,3.9833,3.9936,4.0047,4.0122,4.0206,4.0285,4.0353,4.0451,4.0576,4.0608,4.0729,4.0827,4.0984,4.1047,4.1142,4.1134,4.1164,4.1172,4.1179,4.1181,4.1013,4.1163,4.1163,4.1163,4.1163,4.1162,0,3.9889,3.9957,4.0057,4.0184,4.0271,4.0284,4.0385,4.0456,4.0564,4.0653,4.0747,4.088,4.099,4.1076,4.1188,4.1248,4.1261,4.1276,4.1273,4.1287,4.1182,4.1153,4.1264,4.1264,4.1263,4.1263,4.1263,4.1263,3.9967,4.0096,4.0139,4.0305,4.0372,4.0493,4.055,4.0628,4.07,4.0848,4.094,4.0995,4.1084,4.1203,4.1304,4.1326,4.1367,4.1381,4.1405,4.1305,4.1294,4.1284,4.1258,4.1388,4.1388,4.1503,4.1504,4.1505]}]]